| time (UTC) | temp F | wind direction | speed knots | gust knots | rain 1hr in | rain 24hr in | rain mn in | humidity % | barometer mb |
| 20260503071504 | 68 | 324 | 3.5 | 9.6 | 0.00 | 0.66 | 0.00 | 99 | 1013.5 |
| 20260503070103 | 68 | 277 | 4.3 | 13.0 | 0.00 | 0.66 | 0.00 | 98 | 1013.5 |
| 20260503054551 | 69 | 315 | 4.3 | 9.6 | 0.00 | 0.66 | 0.00 | 98 | 1014.0 |
| 20260503053048 | 69 | 342 | 4.3 | 11.3 | 0.00 | 0.66 | 0.00 | 99 | 1014.2 |
| 20260503051555 | 70 | 328 | 5.2 | 10.4 | 0.00 | 0.66 | 0.00 | 99 | 1014.2 |
| 20260503050045 | 70 | 275 | 4.3 | 8.7 | 0.00 | 0.66 | 0.00 | 99 | 1014.2 |
| 20260503044541 | 70 | 325 | 1.7 | 6.1 | 0.00 | 0.66 | 0.00 | 99 | 1013.9 |
| 20260503043041 | 70 | 289 | 3.5 | 7.8 | 0.01 | 0.66 | 0.00 | 99 | 1013.8 |
| 20260503041539 | 70 | 313 | 3.5 | 8.7 | 0.02 | 0.66 | 0.00 | 99 | 1013.7 |
| 20260503040035 | 70 | 287 | 4.3 | 12.2 | 0.06 | 0.66 | 0.66 | 99 | 1013.5 |
| 20260503034532 | 71 | 293 | 4.3 | 8.7 | 0.07 | 0.66 | 0.66 | 99 | 1013.4 |
| 20260503033041 | 71 | 300 | 0.9 | 6.1 | 0.06 | 0.65 | 0.65 | 99 | 1013.3 |
| 20260503031530 | 71 | 255 | 0.0 | 3.5 | 0.04 | 0.63 | 0.63 | 99 | 1013.0 |
| 20260503030029 | 71 | 258 | 0.0 | 0.0 | 0.01 | 0.60 | 0.60 | 99 | 1012.8 |
| 20260503024525 | 71 | 259 | 0.0 | 7.0 | 0.00 | 0.59 | 0.59 | 99 | 1012.6 |
| 20260503023024 | 72 | 169 | 1.7 | 11.3 | 0.00 | 0.59 | 0.59 | 99 | 1012.3 |
| 20260503021527 | 72 | 116 | 1.7 | 7.0 | 0.00 | 0.59 | 0.59 | 99 | 1012.2 |
| 20260503020023 | 72 | 158 | 2.6 | 7.8 | 0.00 | 0.59 | 0.59 | 99 | 1012.2 |
| 20260503014533 | 72 | 183 | 3.5 | 8.7 | 0.00 | 0.59 | 0.59 | 99 | 1012.0 |
| 20260503013020 | 72 | 179 | 5.2 | 7.8 | 0.00 | 0.59 | 0.59 | 99 | 1011.7 |
| 20260503011521 | 72 | 227 | 3.5 | 8.7 | 0.00 | 0.59 | 0.59 | 99 | 1011.4 |
| 20260503010021 | 72 | 167 | 2.6 | 7.8 | 0.00 | 0.59 | 0.59 | 99 | 1011.2 |
| 20260503004525 | 72 | 144 | 4.3 | 11.3 | 0.00 | 0.59 | 0.59 | 99 | 1011.0 |
| 20260503003017 | 71 | 190 | 5.2 | 0.0 | 0.00 | 0.00 | 0.59 | 99 | 1011.0 |
| 20260503001517 | 71 | 242 | 4.3 | 13.0 | 0.00 | 0.59 | 0.59 | 99 | 1010.9 |
| 20260503000015 | 71 | 213 | 4.3 | 13.9 | 0.00 | 0.59 | 0.59 | 99 | 1010.8 |
| 20260502234513 | 71 | 234 | 0.9 | 7.0 | 0.01 | 0.59 | 0.59 | 99 | 1009.5 |
| 20260502233013 | 71 | 205 | 1.7 | 7.8 | 0.02 | 0.59 | 0.59 | 98 | 1009.7 |
| 20260502231515 | 71 | 198 | 2.6 | 12.2 | 0.02 | 0.59 | 0.59 | 98 | 1010.1 |
| 20260502230012 | 71 | 200 | 6.1 | 13.0 | 0.03 | 0.59 | 0.59 | 98 | 1010.8 |
| 20260502224505 | 71 | 177 | 3.5 | 7.8 | 0.03 | 0.57 | 0.57 | 98 | 1010.4 |
| 20260502223002 | 72 | 207 | 3.5 | 7.8 | 0.03 | 0.56 | 0.56 | 99 | 1010.3 |
| 20260502221600 | 72 | 157 | 5.2 | 10.4 | 0.04 | 0.56 | 0.56 | 98 | 1010.5 |
| 20260502220106 | 72 | 150 | 3.5 | 10.4 | 0.05 | 0.56 | 0.56 | 98 | 1010.5 |
| 20260502214556 | 72 | 155 | 0.0 | 0.9 | 0.06 | 0.55 | 0.55 | 98 | 1010.2 |
| 20260502213116 | 72 | 146 | 0.0 | 0.0 | 0.05 | 0.54 | 0.54 | 98 | 1009.9 |
| 20260502211625 | 73 | 104 | 0.0 | 1.7 | 0.05 | 0.53 | 0.53 | 98 | 1009.3 |
| 20260502210105 | 73 | 94 | 0.0 | 4.3 | 0.03 | 0.51 | 0.51 | 98 | 1009.7 |
| 20260502204552 | 73 | 119 | 0.0 | 5.2 | 0.01 | 0.49 | 0.49 | 98 | 1010.4 |
| 20260502203058 | 73 | 311 | 0.0 | 0.9 | 0.02 | 0.49 | 0.49 | 98 | 1009.9 |
| 20260502201556 | 73 | 311 | 0.0 | 4.3 | 0.01 | 0.48 | 0.48 | 98 | 1010.2 |
| 20260502200051 | 73 | 237 | 0.0 | 5.2 | 0.48 | 0.48 | 0.48 | 98 | 1010.4 |
| 20260502194556 | 74 | 254 | 0.9 | 7.0 | 0.48 | 0.48 | 0.48 | 98 | 1010.4 |
| 20260502193045 | 73 | 217 | 4.3 | 11.3 | 0.47 | 0.47 | 0.47 | 98 | 1010.3 |
| 20260502191545 | 74 | 178 | 2.6 | 21.7 | 0.46 | 0.46 | 0.46 | 96 | 1010.4 |
| 20260502190042 | 83 | 137 | 5.2 | 7.8 | 0.00 | 0.00 | 0.00 | 88 | 1010.5 |
| 20260502184551 | 83 | 148 | 2.6 | 8.7 | 0.00 | 0.00 | 0.00 | 87 | 1010.5 |
| 20260502183051 | 83 | 146 | 5.2 | 11.3 | 0.00 | 0.00 | 0.00 | 86 | 1010.7 |
| 20260502181543 | 84 | 134 | 1.7 | 7.8 | 0.00 | 0.00 | 0.00 | 85 | 1010.8 |
| 20260502163042 | 90 | 140 | 4.3 | 12.2 | 0.00 | 0.00 | 0.00 | 76 | 1011.1 |
| 20260502161539 | 91 | 203 | 5.2 | 11.3 | 0.00 | 0.00 | 0.00 | 74 | 1010.9 |
| 20260502151519 | 90 | 161 | 4.3 | 12.2 | 0.00 | 0.00 | 0.00 | 75 | 1011.5 |
| 20260502123044 | 78 | 173 | 6.1 | 13.9 | 0.00 | 0.00 | 0.00 | 93 | 1009.6 |
| 20260502121541 | 78 | 134 | 5.2 | 12.2 | 0.00 | 0.00 | 0.00 | 93 | 1009.6 |
| 20260502114538 | 76 | 130 | 5.2 | 10.4 | 0.00 | 0.00 | 0.00 | 93 | 1009.4 |
| 20260502113035 | 75 | 111 | 4.3 | 9.6 | 0.00 | 0.00 | 0.00 | 94 | 1009.5 |
| 20260502111530 | 74 | 109 | 2.6 | 9.6 | 0.00 | 0.00 | 0.00 | 93 | 1009.5 |
| 20260502110031 | 74 | 123 | 4.3 | 7.8 | 0.00 | 0.00 | 0.00 | 93 | 1009.4 |
| 20260502104527 | 74 | 119 | 3.5 | 8.7 | 0.00 | 0.00 | 0.00 | 93 | 1009.1 |
| 20260502103032 | 74 | 126 | 4.3 | 8.7 | 0.00 | 0.00 | 0.00 | 92 | 1009.1 |
| 20260502101542 | 74 | 65 | 2.6 | 7.0 | 0.00 | 0.00 | 0.00 | 92 | 1009.2 |
| 20260502091519 | 74 | 111 | 0.9 | 7.0 | 0.00 | 0.00 | 0.00 | 92 | 1009.2 |